STARLINK-5145, 54008

Orbit data source: Space-Track

STARLINK-5145, 54008 is a payload satellite owned by SpaceX/Seattle (US) in LEO that was launched on Wed, 05 Oct 2022 UTC via an FALCON 9 launch vehicle from the Air Force Western Test Range (AFWTR). Payload-class satellites include a variety of spacecraft equipped with specific instruments for various scientific and technological missions. These include communications satellites like Starlink; space stations such as the ISS; scientific satellites like the Hubble; Earth observation satellites from companies like Planet Labs, Umbra, and HawkEye 360; GPS; miniature CubeSats for education and research; and military/defense satellites.

Loading next visibility...
Identifier
54008, 2022-125AW
Orbit
LEO
Country
Flag of USUS
Related business
Manufacturer
SpaceX/Seattle
Mission
Operational Commercial Communications
Bus & Motor
STARLINK, Unknown motor
Mass
305 kg wet, ~290 kg dry
Launch date (UTC)
2022-10-05 (4 years ago)
Launch vehicle
FALCON 9
Launch site
Air Force Western Test Range (AFWTR)
Object type
Payload
Rocket body
Debris
Shape & HBR
Box + 1 Pan, 10.1 m
Radar Cross Section
13.562 m², Large (>1 m²)

Expand to show TLE details & history
Last TLE update: 3 days ago

TLE from 3 days ago
0 STARLINK-5145
1 54008U 22125AW  26170.53805347 -.00000027  00000-0  16365-4 0  9995
2 54008  53.1621 106.4403 0001128  87.9466 272.1655 15.08834530204985
Epoch: 2026-06-19T12:54Z
TLE epoch observation values (Epoch: 2026-06-19T12:54:47.819Z)
Latitude
-0.00001°
Longitude
4.97545°
Altitude
540.622 km
Speed
7.593 km/s
True Right ascension
07h 05m 45s
True Declination
0° 00' 00"
Sunlit
Object was in daylight at epoch
Visualization orbit readout
Latitude
Unknown
Longitude
Unknown
Altitude
Unknown
Speed
Unknown
Apparent Right ascension
Unknown
Apparent Declination
Unknown
Sunlit
N/A
Visualization observer readout
Local Sidereal Time
21:28:16
Azimuth
Unknown
Elevation
Unknown
Doppler factor
Unknown
Orbital elements
Apogee altitude
540.794 km
Perigee altitude
539.234 km
Semi-major axis
6,918.151 km
Eccentricity
0.00011
Inclination
53.1621°
RAAN
106.4403°
Arg. of periapsis
87.9466°
True anomaly
272.15258°
Mean anomaly
272.1655°
Eccentric anomaly
272.15904°
Mean motion
3.77188 °/min
Orbital period
95.44 mins
BSTAR
0.000016365
Loading maneuver chart data...
Computing Atmospheric mass density...
Loading historical data...
Loading historical data...
Loading historical data...
Loading historical data...
Loading historical data...
Loading historical data...
Loading historical data...

Documentation

Showing up to 5 results
|